Voltar ao catálogo

COSMOS 2499 DEB

LostPO
NORAD 60614·DEBRIS·🇷🇺 Russia

Lançado May 23, 2014 de Plesetsk Cosmodrome

Loading…

Próximas Passagens (próximas 24 horas)

TLE

ObsoletoSource: Space-Track

Época: Sep 2, 2024, 10:52 UTC

1 60614U 14028CA  24246.45319928  .00018267  00000-0  47762-1 0  9992
2 60614  82.5415 322.7851 0234984 359.7952   0.3030 13.07246454 62507

Acompanhe COSMOS 2499 DEB em tempo real com AllMySat

Download on the App Store